Location: Eckley
(40.9930°N, 75.8630°W)
Time: 02:11:44
(UTC-04:00)

Daily predictions for brighter satellites

Satellite Brightness Start Highest point End
(mag) Time Altitude Azimuth Time Altitude Azimuth Time Altitude Azimuth
COSMOS 2455 3.9 00:10:01 10° NNW 00:13:48 41° NNW 00:13:48 41° NNW
CZ-2C R/B 4.3 00:42:42 10° N 00:45:37 31° N 00:45:37 31° N
SL-16 R/B 4.0 01:07:34 25° NW 01:07:34 25° NW 01:11:11 10° N
Cosmos 1943 Rocket 3.9 01:10:43 10° N 01:13:45 28° NNE 01:13:45 28° NNE
Mayak 1.8 01:31:05 10° N 01:31:27 12° N 01:31:27 12° N
Cosmos 2369 Rocket 4.0 01:37:29 10° NNW 01:39:48 25° NNW 01:39:48 25° NNW
USA 215 3.8 01:48:54 51° NNW 01:48:54 51° NNW 01:53:48 10° NW
Cosmos 1821 Rocket 4.4 02:32:26 60° NNE 02:32:26 60° NNE 02:37:29 10° N
Cosmos 1934 Rocket 4.4 02:39:33 58° NE 02:39:33 58° NE 02:44:39 10° NNE
Resurs 1-4 Rocket 3.6 02:35:41 10° NE 02:39:37 29° E 02:39:37 29° E
SL-16 R/B 3.0 02:51:00 50° E 02:51:56 54° ENE 02:57:58 10° N
Cosmos 2221 4.4 02:57:03 29° NNE 02:57:03 29° NNE 02:59:14 10° NNE
Cosmos 1605 Rocket 4.1 03:00:25 67° E 03:00:32 68° E 03:06:53 10° NNE
Lacrosse 5 3.7 02:56:50 10° NNW 03:01:15 29° NNE 03:05:38 10° E
COSMOS 2406 3.5 03:03:18 64° NNE 03:03:18 64° NNE 03:08:06 10° NNE
IRS-1D 4.3 02:59:21 10° NNE 03:03:54 47° E 03:03:54 47° E
CZ-2D R/B 2.8 02:59:30 10° NNE 03:04:15 49° E 03:04:15 49° E
Spot 4 Rocket 4.5 03:08:55 10° NNE 03:13:33 57° ENE 03:13:33 57° ENE
USA 229 DEB 4.0 03:22:34 10° NW 03:28:31 53° W 03:28:31 53° W
USA 229 3.9 03:22:40 10° NW 03:28:42 54° W 03:28:42 54° W
ADEOS 3.8 03:25:07 10° NNE 03:30:18 62° ESE 03:30:32 61° ESE
NOSS 3-1 (A) 4.4 03:27:06 10° NNW 03:34:41 67° NE 03:43:04 10° SE
ERS-1 4.5 03:31:58 10° N 03:36:31 73° NNW 03:36:31 73° NNW
ADEOS Rocket 3.6 03:32:12 10° N 03:36:42 36° NW 03:36:42 36° NW
Sich 1 3.8 03:33:30 10° N 03:36:43 48° N 03:36:43 48° N
Cosmos 1726 3.7 03:41:11 31° N 03:41:11 31° N 03:43:16 10° N
Cosmos 1447 Rocket 4.4 03:33:32 10° N 03:39:45 89° W 03:41:06 58° S
Cosmos 2100 Rocket 4.4 03:38:30 36° SSE 03:41:00 59° E 03:47:15 10° NNE
Cosmos 2082 Rocket 3.6 03:40:18 23° SE 03:42:29 31° ESE 03:47:21 10° NE
Cosmos 1538 Rocket 3.9 03:52:04 74° SW 03:52:32 83° WNW 03:57:56 10° NNE
Cosmos 2285 Rocket 4.3 03:55:05 46° W 03:55:59 49° WNW 04:02:12 10° N
Meteor 2-10 4.1 03:57:12 52° S 03:58:40 86° E 04:04:18 10° N
Cosmos 292 Rocket 4.5 04:01:03 39° NW 04:01:03 39° NW 04:05:17 10° N
Cosmos 2173 Rocket 4.1 03:58:04 35° S 04:00:53 78° E 04:07:16 10° N
NOSS 3-1 (C) 4.0 03:54:31 10° NW 04:02:10 72° WSW 04:10:34 10° SSE
Cosmos 1470 Rocket 3.8 03:59:43 10° N 04:04:02 64° E 04:05:23 41° SE
MOS 1 Rocket 3.6 04:03:20 10° N 04:07:15 46° WNW 04:07:15 46° WNW
BREEZE M DEB (TANK) 3.0 04:09:47 54° W 04:10:35 67° SSW 04:21:25 10° SE
ARIANE 5 R/B 2.9 04:06:04 10° N 04:11:05 47° WNW 04:11:38 45° W
Shenzhou-11 Module 3.4 04:12:25 39° ENE 04:12:25 39° ENE 04:14:30 10° ENE
Cosmos 1515 Rocket 3.6 04:11:06 56° S 04:12:00 79° E 04:16:26 10° N
Cosmos 1633 Rocket 3.6 04:08:06 10° NNW 04:11:27 42° WNW 04:11:27 42° WNW
Tiangong 2 2.2 04:13:48 42° E 04:13:48 42° E 04:16:05 10° ENE
Cosmos 1892 3.7 04:09:30 10° N 04:13:12 46° E 04:15:36 20° SE
Meteor 2-3 Rocket 4.3 04:08:11 10° N 04:13:46 58° ENE 04:19:23 10° SSE
Cosmos 2369 3.7 04:09:10 10° NNW 04:14:51 82° ENE 04:20:30 10° SSE
In-Cosmos 22 Rocket 3.9 04:10:13 10° NNW 04:15:35 78° W 04:18:02 33° S
Cosmos 1680 Rocket 4.0 04:16:05 28° S 04:18:47 58° ESE 04:24:01 10° NNE
Cosmos 1459 Rocket 3.8 04:16:15 37° SSW 04:18:49 76° W 04:24:55 10° N
Resurs 1-4 Rocket 2.9 04:15:27 10° N 04:20:07 33° WNW 04:20:42 32° W
MOZ.5/SAFIR/RUBIN 5/SL-8 4.0 04:24:36 46° WSW 04:24:45 46° W 04:29:17 10° NNW
Cosmos 2228 Rocket 3.1 04:25:04 53° WSW 04:25:44 60° W 04:30:09 10° N
Cosmos 2112 Rocket 4.5 04:23:29 23° S 04:26:42 58° ESE 04:31:57 10° NNE
UNKNOWN OBJECT B 3.2 04:23:38 10° N 04:27:34 48° WNW 04:27:47 47° W
Cosmos 1833 Rocket 2.7 04:29:39 28° SSW 04:32:42 80° ESE 04:38:22 10° NNE
Hubble Space Telescope 3.1 04:35:10 12° SSE 04:35:10 12° SSE 04:35:48 10° SSE
Cosmos 1328 Rocket 4.0 04:33:23 40° W 04:33:44 40° WNW 04:37:53 10° N
SL-16 R/B 3.6 04:36:07 24° W 04:36:07 24° W 04:40:44 10° NW
Cosmos 773 Rocket 4.5 04:34:58 35° WSW 04:36:32 44° WNW 04:41:37 10° N
Cosmos 192 4.3 04:35:35 32° SSW 04:37:52 83° WNW 04:42:52 10° NNE
Meteor 1-27 4.1 04:37:13 23° SSW 04:40:52 80° W 04:46:30 10° N
CZ-2D R/B 3.5 04:40:25 10° NNW 04:44:22 22° WNW 04:45:35 20° W
Lacrosse 5 1.8 04:39:31 10° NW 04:44:32 63° SW 04:49:31 10° SSE
Cosmos 1980 Rocket 3.1 04:45:41 10° NNW 04:51:09 51° ENE 04:56:37 10° SE
OAO 2 Rocket 4.1 04:51:41 25° SSW 04:53:39 36° SSE 04:58:10 10° ESE
Cosmos 1151 Rocket 3.5 04:54:36 29° WSW 04:56:08 40° WNW 05:00:11 10° N
Cosmos 2233 Rocket 4.3 04:51:04 10° S 04:57:08 66° E 05:03:12 10° NNE
COSMOS 2487 3.0 04:56:42 33° WSW 04:57:37 40° WNW 05:01:00 10° N
Cosmos 1933 Rocket 4.2 04:53:40 10° NNW 04:57:44 36° W 04:59:41 24° SW
Cosmos 2278 4.1 04:57:40 10° NW 05:02:56 41° WSW 05:08:09 10° S
ADEOS II 2.0 04:58:17 10° N 05:03:33 74° WNW 05:08:35 11° SSW
Cosmos 1455 2.3 05:01:56 24° SW 05:03:53 51° W 05:07:34 10° N
Cosmos 2016 Rocket 4.2 04:59:56 18° SW 05:04:12 47° WNW 05:10:05 10° N
Cosmos 1697 Rocket 2.6 04:59:30 10° NNW 05:05:10 73° WSW 05:10:48 10° SSE
CZ-4B R/B 3.1 05:01:54 10° NNE 05:06:25 86° WNW 05:10:57 10° SSW
Cosmos 1707 Rocket 3.6 05:12:03 10° S 05:16:26 82° E 05:20:51 10° N
ATLAS 2AS CENTAUR R/B 3.5 05:11:20 10° NNW 05:19:20 66° NE 05:26:43 10° SE
Cosmos 1725 Rocket 4.2 05:13:53 10° SSW 05:19:51 51° WNW 05:25:52 10° N
Meteor PRIRODA 4.2 05:20:08 10° NNE 05:23:46 59° E 05:27:21 10° S
CZ-4B DEB 4.2 05:18:17 10° NNE 05:23:50 86° WNW 05:29:19 10° SSW
Okean O Rocket 1.6 05:21:21 10° N 05:25:44 66° WNW 05:30:04 10° SSW
Cosmos 2082 Rocket 2.9 05:22:11 15° WSW 05:26:24 37° WNW 05:31:38 10° N
Okean-O 4.5 05:25:25 10° NNE 05:29:26 33° E 05:33:25 10° SSE
NOSS 3-3 (C) 4.2 05:28:19 10° SSW 05:34:23 75° ESE 05:41:00 10° NE
NOSS 3-3 (A) 4.2 05:28:18 10° SSW 05:34:23 76° ESE 05:41:01 10° NE
Cosmos 1371 Rocket 4.0 05:30:20 10° NNW 05:35:30 62° WSW 05:40:42 10° S
NOSS 2-1 (C) 3.8 05:35:24 10° SSW 05:39:04 59° ESE 05:43:04 10° NE
NOSS 2-1 (D) 3.7 05:35:30 10° SSW 05:39:09 61° ESE 05:43:11 10° NE
Cosmos 1862 3.6 05:36:11 10° N 05:40:16 74° E 05:44:19 10° SSE
CZ-2C R/B 3.6 05:36:37 10° SSE 05:41:03 85° WSW 05:45:34 10° NNW
Cosmos 1408 2.9 05:39:39 10° NNW 05:43:07 44° W 05:46:32 10° SSW
Cosmos 921 Rocket 4.1 05:39:38 10° N 05:43:53 51° ENE 05:48:10 10° SSE
CZ-4B R/B 3.3 05:39:33 10° N 05:44:55 61° WNW 05:50:10 10° SSW
USA 234 4.4 05:39:44 10° ENE 05:45:53 41° SE 05:51:59 10° SSW
Shenzhou-11 Module 2.5 05:44:51 10° W 05:47:55 59° N 05:50:58 10° E
Cosmos 2360 4.2 05:42:38 10° NNW 05:48:16 63° WSW 05:53:52 10° S
Cosmos 1346 Rocket 4.2 05:45:26 10° SSE 05:49:09 42° E 05:52:58 10° NNE
Tiangong 2 1.5 05:46:40 10° W 05:49:52 60° N 05:53:04 10° E
Landsat 4 4.1 05:46:26 10° S 05:49:57 39° W 05:53:31 10° NNW
Cosmos 1862 Rocket 4.4 05:46:09 10° S 05:50:33 58° E 05:54:59 10° NNE
Cosmos 1624 Rocket 4.1 05:45:41 10° NNW 05:50:48 54° WSW 05:55:51 10° S
Cosmos 1825 2.8 05:50:15 10° NNW 05:53:46 36° W 05:57:15 10° SSW
Cosmos 1464 Rocket 4.2 05:50:36 10° S 05:56:53 85° E 06:03:16 10° N
